VSP204 SBDN-SBSP

Flight info

Callsign VSP204
Flight time 1h 20m
Altitude 19000
Route DCT ANSOK VCP
Aircraft DC6/M-SDE3/C

Departure

Time 2026-05-06 20:54
Airport Presidente Prudente Airport (SBDN)

Arrival

Time 2026-05-06 22:14
Airport Congonhas–Deputado Freitas Nobre Airport (SBSP)
Time Latitude Longitude Altitude Speed Heading
2026-05-06 20:26 -22.17789 -51.41752 1487 ft 0 kts 188°
2026-05-06 20:34 -22.17788 -51.41752 1487 ft 0 kts 188°
2026-05-06 20:42 -22.17787 -51.41752 1487 ft 0 kts 188°
2026-05-06 20:48 -22.17775 -51.41752 1474 ft 2 kts 171°
2026-05-06 20:48 -22.17760 -51.41758 1478 ft 2 kts 149°
2026-05-06 20:48 -22.17757 -51.41760 1479 ft 0 kts 146°
2026-05-06 20:50 -22.17760 -51.41757 1478 ft 3 kts 135°
2026-05-06 20:50 -22.17755 -51.41686 1485 ft 17 kts 82°
2026-05-06 20:50 -22.17768 -51.41572 1479 ft 13 kts 94°
2026-05-06 20:50 -22.17737 -51.41492 1485 ft 11 kts 44°
2026-05-06 20:51 -22.17667 -51.41485 1480 ft 9 kts 346°
2026-05-06 20:51 -22.17637 -51.41525 1487 ft 0 kts 277°
2026-05-06 20:52 -22.17632 -51.41567 1475 ft 18 kts 277°
2026-05-06 20:52 -22.17581 -51.41882 1481 ft 68 kts 279°
2026-05-06 20:53 -22.17495 -51.42553 1463 ft 113 kts 279°
2026-05-06 20:53 -22.17368 -51.43479 1562 ft 131 kts 279°
2026-05-06 20:53 -22.17236 -51.44502 1730 ft 142 kts 281°
2026-05-06 20:53 -22.17100 -51.45572 2054 ft 146 kts 271°
2026-05-06 20:54 -22.17406 -51.46679 2220 ft 164 kts 236°
2026-05-06 20:54 -22.18314 -51.47391 2383 ft 168 kts 189°
2026-05-06 20:54 -22.19452 -51.47123 2513 ft 176 kts 140°
2026-05-06 20:54 -22.20050 -51.46045 2819 ft 169 kts 97°
2026-05-06 20:55 -22.19778 -51.44854 3077 ft 170 kts 51°
2026-05-06 20:55 -22.18745 -51.44222 3402 ft 172 kts 22°
2026-05-06 20:55 -22.17601 -51.43778 3722 ft 181 kts 22°
2026-05-06 20:55 -22.16396 -51.43245 3937 ft 191 kts 23°
2026-05-06 20:56 -22.15213 -51.42740 4547 ft 173 kts 20°
2026-05-06 20:56 -22.14121 -51.42351 5159 ft 158 kts 21°
2026-05-06 20:56 -22.13191 -51.41777 5496 ft 153 kts 45°
2026-05-06 20:56 -22.12706 -51.40783 5869 ft 150 kts 77°
2026-05-06 20:57 -22.12812 -51.39687 6229 ft 151 kts 108°
2026-05-06 20:57 -22.13327 -51.38709 6556 ft 147 kts 116°
2026-05-06 20:57 -22.13836 -51.37758 6817 ft 150 kts 115°
2026-05-06 20:57 -22.14365 -51.36777 7087 ft 152 kts 116°
2026-05-06 20:58 -22.14907 -51.35787 7370 ft 153 kts 116°
2026-05-06 20:58 -22.15456 -51.34792 7652 ft 155 kts 116°
2026-05-06 20:58 -22.16003 -51.33787 7927 ft 156 kts 116°
2026-05-06 20:58 -22.16559 -51.32780 8235 ft 156 kts 116°
2026-05-06 20:59 -22.17117 -51.31775 8518 ft 156 kts 116°
2026-05-06 20:59 -22.17678 -51.30763 8811 ft 157 kts 116°
2026-05-06 20:59 -22.18241 -51.29753 9086 ft 156 kts 117°
2026-05-06 20:59 -22.18785 -51.28741 9336 ft 155 kts 110°
2026-05-06 21:00 -22.19011 -51.27625 9527 ft 151 kts 93°
2026-05-06 21:00 -22.19213 -51.26508 9765 ft 152 kts 97°
2026-05-06 21:00 -22.19423 -51.25395 9995 ft 151 kts 97°
2026-05-06 21:00 -22.19630 -51.24282 10176 ft 153 kts 97°
2026-05-06 21:01 -22.19833 -51.23158 10420 ft 153 kts 97°
2026-05-06 21:01 -22.20038 -51.22026 10640 ft 155 kts 97°
2026-05-06 21:01 -22.20171 -51.20848 10776 ft 160 kts 86°
2026-05-06 21:01 -22.20198 -51.19630 10933 ft 164 kts 89°
2026-05-06 21:02 -22.20499 -51.18424 11085 ft 174 kts 117°
2026-05-06 21:02 -22.21094 -51.17275 11227 ft 177 kts 109°
2026-05-06 21:02 -22.21339 -51.15983 11409 ft 180 kts 92°
2026-05-06 21:02 -22.21436 -51.14630 11665 ft 182 kts 93°
2026-05-06 21:03 -22.21570 -51.13262 11870 ft 185 kts 94°
2026-05-06 21:03 -22.21708 -51.11876 12109 ft 187 kts 94°
2026-05-06 21:03 -22.21846 -51.10459 12236 ft 194 kts 94°
2026-05-06 21:03 -22.21990 -51.08982 12368 ft 201 kts 94°
2026-05-06 21:04 -22.22135 -51.07469 12529 ft 204 kts 94°
2026-05-06 21:04 -22.22276 -51.05930 12680 ft 208 kts 95°
2026-05-06 21:04 -22.22434 -51.04371 12837 ft 210 kts 95°
2026-05-06 21:04 -22.22535 -51.03330 12951 ft 211 kts 95°
2026-05-06 21:05 -22.22683 -51.01749 13123 ft 213 kts 95°
2026-05-06 21:05 -22.22837 -51.00153 13286 ft 215 kts 95°
2026-05-06 21:05 -22.22992 -50.98520 13310 ft 222 kts 95°
2026-05-06 21:05 -22.23152 -50.96827 13331 ft 230 kts 95°
2026-05-06 21:06 -22.23321 -50.95107 13275 ft 228 kts 96°
2026-05-06 21:06 -22.23486 -50.93404 13183 ft 230 kts 95°
2026-05-06 21:06 -22.23642 -50.91675 13252 ft 230 kts 95°
2026-05-06 21:06 -22.23807 -50.89949 13430 ft 232 kts 95°
2026-05-06 21:07 -22.23974 -50.88209 13603 ft 233 kts 95°
2026-05-06 21:07 -22.24139 -50.86481 13753 ft 235 kts 95°
2026-05-06 21:07 -22.24305 -50.84729 13898 ft 235 kts 95°
2026-05-06 21:07 -22.24471 -50.82966 14030 ft 236 kts 96°
2026-05-06 21:08 -22.24639 -50.81196 14170 ft 237 kts 96°
2026-05-06 21:08 -22.24806 -50.79420 14309 ft 238 kts 95°
2026-05-06 21:08 -22.24974 -50.77636 14446 ft 238 kts 96°
2026-05-06 21:08 -22.25143 -50.75857 14580 ft 238 kts 96°
2026-05-06 21:09 -22.25311 -50.74074 14715 ft 239 kts 96°
2026-05-06 21:09 -22.25477 -50.72292 14851 ft 239 kts 96°
2026-05-06 21:09 -22.25643 -50.70529 14982 ft 239 kts 96°
2026-05-06 21:09 -22.25811 -50.68744 15112 ft 239 kts 96°
2026-05-06 21:10 -22.25977 -50.66964 15242 ft 238 kts 96°
2026-05-06 21:10 -22.26144 -50.65182 15377 ft 238 kts 96°
2026-05-06 21:10 -22.26310 -50.63400 15502 ft 239 kts 96°
2026-05-06 21:10 -22.26477 -50.61617 15629 ft 239 kts 96°
2026-05-06 21:11 -22.26643 -50.59835 15759 ft 238 kts 96°
2026-05-06 21:11 -22.26808 -50.58056 15878 ft 238 kts 96°
2026-05-06 21:11 -22.26974 -50.56277 15986 ft 238 kts 96°
2026-05-06 21:11 -22.27140 -50.54490 16105 ft 239 kts 96°
2026-05-06 21:12 -22.27304 -50.52718 16232 ft 241 kts 96°
2026-05-06 21:12 -22.27471 -50.50915 16358 ft 242 kts 96°
2026-05-06 21:12 -22.27640 -50.49102 16503 ft 243 kts 96°
2026-05-06 21:12 -22.27808 -50.47282 16641 ft 244 kts 96°
2026-05-06 21:13 -22.27976 -50.45458 16772 ft 244 kts 96°
2026-05-06 21:13 -22.28144 -50.43630 16910 ft 245 kts 96°
2026-05-06 21:13 -22.28313 -50.41801 17049 ft 245 kts 96°
2026-05-06 21:13 -22.28481 -50.39967 17186 ft 245 kts 96°
2026-05-06 21:14 -22.28650 -50.38137 17319 ft 245 kts 96°
2026-05-06 21:14 -22.28818 -50.36305 17449 ft 245 kts 96°
2026-05-06 21:14 -22.28983 -50.34500 17583 ft 245 kts 96°
2026-05-06 21:14 -22.29151 -50.32673 17703 ft 245 kts 96°
2026-05-06 21:15 -22.29317 -50.30845 17820 ft 244 kts 96°
2026-05-06 21:15 -22.29484 -50.29020 17942 ft 244 kts 96°
2026-05-06 21:15 -22.29651 -50.27196 18064 ft 244 kts 96°
2026-05-06 21:15 -22.29817 -50.25371 18186 ft 244 kts 96°
2026-05-06 21:16 -22.29982 -50.23549 18307 ft 244 kts 96°
2026-05-06 21:16 -22.30148 -50.21726 18413 ft 244 kts 96°
2026-05-06 21:16 -22.30314 -50.19900 18511 ft 244 kts 96°
2026-05-06 21:16 -22.30479 -50.18078 18604 ft 243 kts 96°
2026-05-06 21:17 -22.30642 -50.16278 18696 ft 243 kts 96°
2026-05-06 21:17 -22.30806 -50.14457 18780 ft 243 kts 96°
2026-05-06 21:17 -22.30970 -50.12635 18870 ft 243 kts 96°
2026-05-06 21:17 -22.31134 -50.10818 18954 ft 243 kts 96°
2026-05-06 21:18 -22.31299 -50.08993 19036 ft 243 kts 97°
2026-05-06 21:18 -22.31463 -50.07162 19054 ft 247 kts 96°
2026-05-06 21:18 -22.31629 -50.05329 19094 ft 248 kts 96°
2026-05-06 21:18 -22.31794 -50.03470 19120 ft 250 kts 96°
2026-05-06 21:19 -22.31964 -50.01587 19118 ft 253 kts 96°
2026-05-06 21:19 -22.32134 -49.99680 19124 ft 256 kts 96°
2026-05-06 21:19 -22.32306 -49.97770 19118 ft 256 kts 96°
2026-05-06 21:19 -22.32475 -49.95853 19126 ft 256 kts 96°
2026-05-06 21:20 -22.32646 -49.93938 19127 ft 256 kts 96°
2026-05-06 21:20 -22.32815 -49.92049 19122 ft 256 kts 96°
2026-05-06 21:20 -22.32984 -49.90134 19120 ft 256 kts 96°
2026-05-06 21:20 -22.33155 -49.88213 19125 ft 256 kts 96°
2026-05-06 21:21 -22.33326 -49.86295 19121 ft 256 kts 96°
2026-05-06 21:21 -22.33495 -49.84373 19120 ft 256 kts 96°
2026-05-06 21:21 -22.33663 -49.82475 19118 ft 256 kts 96°
2026-05-06 21:21 -22.33832 -49.80559 19117 ft 256 kts 96°
2026-05-06 21:22 -22.33999 -49.78652 19109 ft 254 kts 96°
2026-05-06 21:22 -22.34168 -49.76755 19099 ft 253 kts 96°
2026-05-06 21:22 -22.34334 -49.74863 19095 ft 253 kts 96°
2026-05-06 21:22 -22.34500 -49.72973 19093 ft 253 kts 96°
2026-05-06 21:23 -22.34665 -49.71081 19088 ft 252 kts 96°
2026-05-06 21:23 -22.34831 -49.69191 19078 ft 252 kts 96°
2026-05-06 21:23 -22.34995 -49.67308 19080 ft 252 kts 96°
2026-05-06 21:23 -22.35160 -49.65423 19067 ft 252 kts 96°
2026-05-06 21:24 -22.35325 -49.63540 19076 ft 252 kts 96°
2026-05-06 21:24 -22.35486 -49.61671 19072 ft 252 kts 96°
2026-05-06 21:24 -22.35652 -49.59783 19073 ft 253 kts 96°
2026-05-06 21:24 -22.35815 -49.57896 19067 ft 252 kts 96°
2026-05-06 21:25 -22.35979 -49.56007 19060 ft 252 kts 97°
2026-05-06 21:25 -22.36143 -49.54116 19070 ft 253 kts 96°
2026-05-06 21:25 -22.36306 -49.52227 19068 ft 253 kts 96°
2026-05-06 21:25 -22.36469 -49.50339 19065 ft 253 kts 96°
2026-05-06 21:26 -22.36632 -49.48446 19070 ft 253 kts 96°
2026-05-06 21:26 -22.36796 -49.46551 19071 ft 253 kts 96°
2026-05-06 21:26 -22.36959 -49.44656 19066 ft 253 kts 96°
2026-05-06 21:26 -22.37122 -49.42759 19077 ft 254 kts 96°
2026-05-06 21:27 -22.37285 -49.40861 19078 ft 253 kts 96°
2026-05-06 21:27 -22.37443 -49.38987 19083 ft 254 kts 96°
2026-05-06 21:27 -22.37592 -49.37084 19084 ft 254 kts 96°
2026-05-06 21:27 -22.37736 -49.35184 19080 ft 254 kts 96°
2026-05-06 21:28 -22.37882 -49.33285 19091 ft 254 kts 96°
2026-05-06 21:28 -22.38026 -49.31383 19093 ft 254 kts 96°
2026-05-06 21:28 -22.38168 -49.29480 19091 ft 254 kts 96°
2026-05-06 21:28 -22.38311 -49.27581 19105 ft 254 kts 96°
2026-05-06 21:29 -22.38454 -49.25676 19108 ft 254 kts 96°
2026-05-06 21:29 -22.38596 -49.23776 19112 ft 254 kts 96°
2026-05-06 21:29 -22.38738 -49.21869 19117 ft 254 kts 96°
2026-05-06 21:29 -22.38877 -49.19989 19115 ft 254 kts 96°
2026-05-06 21:30 -22.39043 -49.18092 19117 ft 253 kts 100°
2026-05-06 21:30 -22.39536 -49.16279 19115 ft 250 kts 110°
2026-05-06 21:30 -22.40094 -49.14496 19125 ft 250 kts 110°
2026-05-06 21:30 -22.40651 -49.12711 19127 ft 250 kts 110°
2026-05-06 21:31 -22.40937 -49.10860 19107 ft 252 kts 89°
2026-05-06 21:31 -22.40624 -49.09001 19128 ft 252 kts 78°
2026-05-06 21:31 -22.40268 -49.07151 19126 ft 251 kts 83°
2026-05-06 21:31 -22.40201 -49.05295 19128 ft 250 kts 95°
2026-05-06 21:32 -22.40413 -49.03430 19134 ft 249 kts 99°
2026-05-06 21:32 -22.40783 -48.99700 19127 ft 249 kts 99°
2026-05-06 21:32 -22.41287 -48.97922 19126 ft 247 kts 114°
2026-05-06 21:33 -22.41968 -48.96243 19129 ft 247 kts 114°
2026-05-06 21:33 -22.42588 -48.94511 19117 ft 248 kts 110°
2026-05-06 21:33 -22.43140 -48.92744 19123 ft 248 kts 110°
2026-05-06 21:33 -22.43706 -48.90983 19128 ft 248 kts 111°
2026-05-06 21:34 -22.44290 -48.89220 19112 ft 249 kts 111°
2026-05-06 21:34 -22.44869 -48.87458 19115 ft 249 kts 111°
2026-05-06 21:34 -22.45447 -48.85691 19116 ft 249 kts 111°
2026-05-06 21:34 -22.46025 -48.83925 19110 ft 249 kts 111°
2026-05-06 21:35 -22.46604 -48.82156 19107 ft 249 kts 111°
2026-05-06 21:35 -22.47175 -48.80409 19103 ft 249 kts 111°
2026-05-06 21:35 -22.47753 -48.78642 19107 ft 250 kts 111°
2026-05-06 21:35 -22.48335 -48.76865 19099 ft 250 kts 111°
2026-05-06 21:36 -22.48914 -48.75090 19094 ft 250 kts 111°
2026-05-06 21:36 -22.49494 -48.73316 19100 ft 250 kts 111°
2026-05-06 21:36 -22.50067 -48.71559 19090 ft 250 kts 111°
2026-05-06 21:36 -22.50647 -48.69784 19096 ft 250 kts 111°
2026-05-06 21:37 -22.51227 -48.68008 19088 ft 250 kts 111°
2026-05-06 21:37 -22.51806 -48.66229 19095 ft 250 kts 111°
2026-05-06 21:37 -22.52385 -48.64453 19093 ft 250 kts 111°
2026-05-06 21:37 -22.52963 -48.62678 19098 ft 250 kts 111°
2026-05-06 21:38 -22.53543 -48.60901 19096 ft 250 kts 111°
2026-05-06 21:38 -22.54120 -48.59123 19090 ft 250 kts 111°
2026-05-06 21:38 -22.54700 -48.57346 19094 ft 250 kts 111°
2026-05-06 21:38 -22.55271 -48.55590 19100 ft 250 kts 111°
2026-05-06 21:39 -22.55849 -48.53811 19094 ft 250 kts 111°
2026-05-06 21:39 -22.56427 -48.52031 19096 ft 250 kts 111°
2026-05-06 21:39 -22.57005 -48.50252 19093 ft 251 kts 111°
2026-05-06 21:39 -22.57583 -48.48473 19094 ft 250 kts 111°
2026-05-06 21:40 -22.58162 -48.46690 19105 ft 250 kts 111°
2026-05-06 21:40 -22.58732 -48.44931 19096 ft 250 kts 111°
2026-05-06 21:40 -22.59309 -48.43150 19097 ft 250 kts 111°
2026-05-06 21:40 -22.59887 -48.41372 19099 ft 250 kts 111°
2026-05-06 21:41 -22.60463 -48.39591 19098 ft 250 kts 111°
2026-05-06 21:41 -22.61041 -48.37807 19102 ft 250 kts 111°
2026-05-06 21:41 -22.61618 -48.36026 19099 ft 250 kts 111°
2026-05-06 21:41 -22.62195 -48.34241 19107 ft 250 kts 111°
2026-05-06 21:42 -22.62770 -48.32466 19098 ft 250 kts 111°
2026-05-06 21:42 -22.63339 -48.30705 19100 ft 250 kts 111°
2026-05-06 21:42 -22.63914 -48.28923 19099 ft 250 kts 111°
2026-05-06 21:42 -22.64490 -48.27143 19094 ft 251 kts 111°
2026-05-06 21:43 -22.65066 -48.25358 19094 ft 251 kts 111°
2026-05-06 21:43 -22.65641 -48.23575 19095 ft 251 kts 111°
2026-05-06 21:43 -22.66217 -48.21790 19101 ft 251 kts 111°
2026-05-06 21:43 -22.66792 -48.20009 19101 ft 251 kts 111°
2026-05-06 21:44 -22.67367 -48.18222 19096 ft 251 kts 111°
2026-05-06 21:44 -22.67936 -48.16461 19102 ft 251 kts 111°
2026-05-06 21:44 -22.68511 -48.14673 19100 ft 251 kts 111°
2026-05-06 21:44 -22.69086 -48.12886 19101 ft 251 kts 111°
2026-05-06 21:45 -22.69662 -48.11099 19101 ft 251 kts 111°
2026-05-06 21:45 -22.70236 -48.09312 19099 ft 251 kts 111°
2026-05-06 21:45 -22.70811 -48.07527 19096 ft 251 kts 111°
2026-05-06 21:45 -22.71377 -48.05764 19101 ft 251 kts 111°
2026-05-06 21:46 -22.71950 -48.03980 19097 ft 250 kts 111°
2026-05-06 21:46 -22.72525 -48.02192 19095 ft 250 kts 111°
2026-05-06 21:46 -22.73096 -48.00410 19092 ft 250 kts 111°
2026-05-06 21:46 -22.73664 -47.98641 19099 ft 250 kts 111°
2026-05-06 21:47 -22.74236 -47.96857 19096 ft 250 kts 111°
2026-05-06 21:47 -22.74807 -47.95078 19104 ft 250 kts 111°
2026-05-06 21:47 -22.75378 -47.93294 19100 ft 250 kts 111°
2026-05-06 21:47 -22.75950 -47.91510 19100 ft 250 kts 111°
2026-05-06 21:48 -22.76520 -47.89728 19102 ft 250 kts 111°
2026-05-06 21:48 -22.77091 -47.87946 19101 ft 250 kts 111°
2026-05-06 21:48 -22.77663 -47.86155 19096 ft 251 kts 111°
2026-05-06 21:48 -22.78234 -47.84371 19111 ft 251 kts 111°
2026-05-06 21:49 -22.78799 -47.82603 19100 ft 251 kts 111°
2026-05-06 21:49 -22.79370 -47.80815 19108 ft 251 kts 111°
2026-05-06 21:49 -22.79940 -47.79030 19101 ft 251 kts 111°
2026-05-06 21:49 -22.80510 -47.77244 19103 ft 251 kts 111°
2026-05-06 21:50 -22.81080 -47.75459 19101 ft 251 kts 111°
2026-05-06 21:50 -22.81652 -47.73666 19101 ft 251 kts 111°
2026-05-06 21:50 -22.82222 -47.71878 19104 ft 250 kts 111°
2026-05-06 21:50 -22.82790 -47.70095 19101 ft 250 kts 111°
2026-05-06 21:51 -22.83351 -47.68333 19104 ft 250 kts 111°
2026-05-06 21:51 -22.83919 -47.66550 19107 ft 250 kts 111°
2026-05-06 21:51 -22.84487 -47.64765 19101 ft 250 kts 111°
2026-05-06 21:51 -22.85057 -47.62973 19106 ft 250 kts 111°
2026-05-06 21:52 -22.85624 -47.61189 19099 ft 250 kts 111°
2026-05-06 21:52 -22.86191 -47.59406 19104 ft 250 kts 111°
2026-05-06 21:52 -22.86758 -47.57621 19105 ft 250 kts 111°
2026-05-06 21:52 -22.87323 -47.55839 19102 ft 250 kts 111°
2026-05-06 21:53 -22.87890 -47.54054 19105 ft 250 kts 111°
2026-05-06 21:53 -22.88452 -47.52286 19101 ft 250 kts 111°
2026-05-06 21:53 -22.89018 -47.50500 19103 ft 250 kts 111°
2026-05-06 21:53 -22.89584 -47.48712 19109 ft 250 kts 111°
2026-05-06 21:54 -22.90152 -47.46922 19111 ft 250 kts 111°
2026-05-06 21:54 -22.90526 -47.45740 19117 ft 250 kts 110°
2026-05-06 21:54 -22.91278 -47.43368 19121 ft 251 kts 111°
2026-05-06 21:54 -22.91844 -47.41575 19121 ft 251 kts 111°
2026-05-06 21:55 -22.92410 -47.39787 19130 ft 251 kts 110°
2026-05-06 21:55 -22.92785 -47.38601 19132 ft 251 kts 110°
2026-05-06 21:55 -22.93351 -47.36809 19140 ft 251 kts 111°
2026-05-06 21:55 -22.93918 -47.35017 19137 ft 251 kts 110°
2026-05-06 21:56 -22.94483 -47.33225 19143 ft 251 kts 110°
2026-05-06 21:56 -22.95048 -47.31435 19144 ft 251 kts 110°
2026-05-06 21:56 -22.95613 -47.29645 19152 ft 251 kts 110°
2026-05-06 21:56 -22.96178 -47.27856 19153 ft 251 kts 110°
2026-05-06 21:57 -22.96735 -47.26086 19158 ft 251 kts 110°
2026-05-06 21:57 -22.97301 -47.24292 19157 ft 251 kts 111°
2026-05-06 21:57 -22.97865 -47.22501 19164 ft 251 kts 110°
2026-05-06 21:57 -22.98429 -47.20707 19161 ft 251 kts 110°
2026-05-06 21:58 -22.98992 -47.18919 19167 ft 250 kts 110°
2026-05-06 21:58 -22.99556 -47.17126 19164 ft 250 kts 111°
2026-05-06 21:58 -23.00119 -47.15338 19162 ft 250 kts 110°
2026-05-06 21:58 -23.00685 -47.13536 18797 ft 264 kts 110°
2026-05-06 21:59 -23.01302 -47.11580 18292 ft 282 kts 110°
2026-05-06 21:59 -23.01942 -47.09516 17865 ft 291 kts 109°
2026-05-06 21:59 -23.02584 -47.07418 17560 ft 294 kts 109°
2026-05-06 21:59 -23.03525 -47.05436 17088 ft 300 kts 127°
2026-05-06 22:00 -23.05057 -47.03884 16647 ft 306 kts 145°
2026-05-06 22:00 -23.07001 -47.02959 16213 ft 304 kts 164°
2026-05-06 22:00 -23.09065 -47.02695 15970 ft 292 kts 174°
2026-05-06 22:00 -23.11053 -47.02461 15664 ft 284 kts 169°
2026-05-06 22:01 -23.12985 -47.02098 15296 ft 277 kts 169°
2026-05-06 22:01 -23.14866 -47.01763 14922 ft 270 kts 169°
2026-05-06 22:01 -23.16679 -47.01450 14552 ft 264 kts 169°
2026-05-06 22:01 -23.18483 -47.01143 14179 ft 260 kts 169°
2026-05-06 22:02 -23.20259 -47.00844 13792 ft 257 kts 169°
2026-05-06 22:02 -23.22007 -47.00547 13373 ft 251 kts 168°
2026-05-06 22:02 -23.23691 -47.00149 12918 ft 245 kts 165°
2026-05-06 22:02 -23.25340 -46.99734 12510 ft 242 kts 165°
2026-05-06 22:03 -23.26970 -46.99327 12111 ft 239 kts 165°
2026-05-06 22:03 -23.28570 -46.98927 11710 ft 237 kts 165°
2026-05-06 22:03 -23.30174 -46.98523 11320 ft 236 kts 165°
2026-05-06 22:03 -23.31768 -46.98112 10933 ft 234 kts 164°
2026-05-06 22:04 -23.33329 -46.97602 10528 ft 234 kts 159°
2026-05-06 22:04 -23.34836 -46.96948 10155 ft 233 kts 154°
2026-05-06 22:04 -23.36297 -46.96178 9767 ft 232 kts 152°
2026-05-06 22:04 -23.37742 -46.95405 9378 ft 231 kts 152°
2026-05-06 22:05 -23.39152 -46.94650 8987 ft 225 kts 152°
2026-05-06 22:05 -23.40564 -46.93951 8577 ft 220 kts 157°
2026-05-06 22:05 -23.42015 -46.93463 8166 ft 216 kts 165°
2026-05-06 22:05 -23.43483 -46.93178 7768 ft 212 kts 169°
2026-05-06 22:06 -23.44928 -46.92896 7355 ft 209 kts 168°
2026-05-06 22:06 -23.46340 -46.92603 6949 ft 204 kts 164°
2026-05-06 22:06 -23.47325 -46.92051 6607 ft 198 kts 136°
2026-05-06 22:06 -23.47982 -46.90834 6380 ft 181 kts 101°
2026-05-06 22:07 -23.47929 -46.89547 6172 ft 166 kts 80°
2026-05-06 22:07 -23.47771 -46.88291 6004 ft 173 kts 83°
2026-05-06 22:07 -23.47614 -46.86951 5971 ft 183 kts 82°
2026-05-06 22:07 -23.47447 -46.85553 5964 ft 189 kts 82°
2026-05-06 22:08 -23.47275 -46.84111 5925 ft 196 kts 82°
2026-05-06 22:08 -23.47099 -46.82669 5615 ft 188 kts 82°
2026-05-06 22:08 -23.46924 -46.81285 5292 ft 180 kts 81°
2026-05-06 22:08 -23.46739 -46.79954 4960 ft 174 kts 82°
2026-05-06 22:09 -23.46566 -46.78710 4811 ft 159 kts 82°
2026-05-06 22:09 -23.46420 -46.77588 4580 ft 145 kts 88°
2026-05-06 22:09 -23.46832 -46.76627 4119 ft 146 kts 143°
2026-05-06 22:09 -23.47633 -46.76115 4158 ft 124 kts 138°
2026-05-06 22:10 -23.48348 -46.75578 4468 ft 129 kts 147°
2026-05-06 22:10 -23.49155 -46.75015 4619 ft 145 kts 142°
2026-05-06 22:10 -23.50046 -46.74392 4827 ft 157 kts 146°
2026-05-06 22:10 -23.51029 -46.73736 4873 ft 174 kts 145°
2026-05-06 22:11 -23.52061 -46.73007 4884 ft 177 kts 143°
2026-05-06 22:11 -23.53094 -46.72205 4704 ft 184 kts 141°
2026-05-06 22:11 -23.54104 -46.71403 4437 ft 173 kts 142°
2026-05-06 22:11 -23.55076 -46.70714 4063 ft 161 kts 147°
2026-05-06 22:12 -23.55998 -46.70159 3758 ft 140 kts 149°
2026-05-06 22:12 -23.56877 -46.69652 3702 ft 143 kts 148°
2026-05-06 22:12 -23.57712 -46.69099 3592 ft 135 kts 143°
2026-05-06 22:12 -23.58440 -46.68538 3445 ft 122 kts 142°
2026-05-06 22:13 -23.59111 -46.68059 3353 ft 111 kts 146°
2026-05-06 22:13 -23.59789 -46.67665 3141 ft 107 kts 152°
2026-05-06 22:13 -23.60370 -46.67236 2982 ft 98 kts 140°
2026-05-06 22:13 -23.60910 -46.66809 2894 ft 97 kts 148°
2026-05-06 22:14 -23.61512 -46.66430 2780 ft 103 kts 148°
2026-05-06 22:14 -23.62134 -46.65998 2658 ft 108 kts 148°
2026-05-06 22:14 -23.62770 -46.65564 2608 ft 98 kts 148°
2026-05-06 22:14 -23.63185 -46.65287 2610 ft 49 kts 148°
2026-05-06 22:15 -23.63350 -46.65173 2606 ft 23 kts 147°
2026-05-06 22:15 -23.63431 -46.65121 2601 ft 12 kts 176°
2026-05-06 22:15 -23.63503 -46.65170 2600 ft 12 kts 249°
2026-05-06 22:15 -23.63456 -46.65245 2601 ft 15 kts 326°
2026-05-06 22:16 -23.63357 -46.65316 2602 ft 20 kts 327°
2026-05-06 22:16 -23.63259 -46.65381 2602 ft 17 kts 328°
2026-05-06 22:16 -23.63158 -46.65447 2602 ft 18 kts 327°
2026-05-06 22:16 -23.63056 -46.65517 2602 ft 14 kts 346°
2026-05-06 22:17 -23.62987 -46.65533 2603 ft 10 kts 325°
2026-05-06 22:17 -23.62919 -46.65582 2602 ft 13 kts 328°
2026-05-06 22:17 -23.62824 -46.65646 2602 ft 18 kts 327°
2026-05-06 22:17 -23.62783 -46.65701 2601 ft 10 kts 247°
2026-05-06 22:18 -23.62814 -46.65755 2600 ft 0 kts 237°
2026-05-06 22:20 -23.62813 -46.65755 2600 ft 0 kts 237°
2026-05-06 22:24 -23.62813 -46.65754 2600 ft 0 kts 237°